SCP
0 0 0 0 -0 -0 -0 -0 -0 -0 -0 -0 -0 -0 -0 -0 -0 -0 -0 -0 -0 -0 -0 -0 -0 -0 -0 -0 -0 -0 -0 -0 -0 -0 -0 -0 -0 0 0 0 0 0 0
0 0 0 -0 -0 -0 -0 -0 -0 -0 -0 -0 -0 -0 -0 -0 -0 -0 -0 -0 -0 -0 -0 -0 -0 -0 -0 -0 -0 -0 -0 -0 -0 -0 -0 -0 -0 -0 0 0 0 0 0
0 0 0 -0 -0 -0 0 -0 -0 -0 -0 -0 -0 -0 -0 -0 -0 -0 -0 -0 -0 -0 -0 -0 -0 -0 -0 -0 -0 -0 -0 -0 -0 -0 -0 0 0 -0 0 0 0 0 0
0 0 0 -0 0 0 -0 0 0 -0 -0 -0 -0 -0 -0 0 0 0 0 0 0 -0 0 0 0 0 0 -0 -0 -0 -0 0 -0 -0 0 0 0 -0 0 0 0 0 0
-0 -0 0 -0 0 0 0 0 0 -0 -0 -0 -0 -0 -0 -0 0 0 0 0 0 0 0 0 0 0 0 0 -0 -0 0 0 0 0 0 0 0 0 -0 -0 0 0 0
-0 0 0 -0 -0 -0 -0 -0 -0 -0 -0 -0 -0 -0 -0 -0 0 0 0 0 0 0 0 0 0 0 0 0 0 0 0 0 0 0 0 0 0 -0 -0 -0 0 0 0
0 0 0 -0 -0 -0 -0 -0 -0 -0 -0 -0 -0 -0 -0 -0 -0 0 0 0 0 0 0 0 0 0 0 0 0 0 0 0 0 0 0 0 0 0 -0 -0 0 0 0
-0 -0 0 -0 -0 -0 -0 -0 -0 -0 -0 -0 -0 0 0 0 -0 0 0 0 0 0 0 0 0 0 0 0 0 0 0 0 0 0 0 0 0 0 0 0 0 0 0
-0 0 -0 -0 -0 0 0 -0 0 0 0 0 0 0 0 0 0 0 0 0 0 0 0 0 0 0 0 0 0 0 0 0 0 0 0 0 -0 0 0 0 0 0 0
-0 -0 -0 -0 -0 -0 -0 -0 -0 0 0 0 0 0 0 0 0 0 0 0 0 0 0 0 0 0 0 0 0 0 0 0 0 0 0 0 -0 0 0 0 0 0 0
0 0 0 0 0 0 0 -0 -0 -0 0 0 0 0 0 0 0 0 0 0 0 0 0 0 0 0 0 0 -0 -0 -0 0 0 0 0 0 -0 0 0 0 0 0 0
0 1 0 0 0 0 0 1 0 0 0 0 0 0 0 0 0 0 0 0 0 0 0 0 0 0 0 0 0 0 0 0 0 0 0 -0 0 0 0 0 0 0 0
0 0 0 0 0 0 0 0 0 0 0 1 0 1 1 0 0 0 0 1 1 1 1 1 1 0 0 0 0 0 0 0 0 0 0 0 0 0 0 0 0 0 0
0 0 0 0 0 0 0 0 0 0 0 1 0 0 1 1 0 0 0 0 1 1 1 1 1 1 0 0 0 0 0 0 0 0 0 0 0 0 0 0 0 0 0
0 0 0 0 0 0 0 0 0 0 0 0 0 0 1 1 0 0 0 0 0 1 1 1 0 0 0 0 0 0 0 0 0 0 0 0 0 0 0 0 0 0 0
0 0 0 0 0 0 0 0 0 0 0 0 0 0 1 1 1 1 0 0 1 1 1 1 0 0 0 0 0 0 0 0 0 0 0 0 0 0 0 0 0 0 0
0 0 0 0 0 0 0 0 0 0 0 0 0 0 0 0 1 1 1 0 1 1 1 1 0 0 0 0 0 0 0 0 0 0 0 0 1 0 0 0 0 0 0
0 0 0 0 0 0 0 0 0 0 0 0 0 0 0 0 0 1 2 1 1 0 1 1 1 1 0 0 0 0 0 0 0 0 0 0 0 0 0 0 0 0 0
0 0 0 0 0 0 0 0 0 0 0 0 0 0 0 0 0 0 1 2 1 1 0 0 0 0 0 0 0 0 0 0 0 1 0 0 0 0 0 0 0 0 0
0 0 0 0 0 0 0 0 0 0 0 0 0 0 0 0 0 0 0 1 2 1 1 0 0 0 0 0 0 0 0 0 0 0 1 1 0 0 0 0 0 0 0
0 0 0 0 0 0 0 0 0 0 0 0 0 0 0 0 0 0 0 0 1 1 1 1 0 0 0 0 0 0 0 0 0 0 0 1 0 0 0 0 0 0 0
0 0 0 0 0 0 0 0 0 0 0 0 0 -0 -0 0 0 0 0 0 0 1 1 1 0 0 0 0 0 0 0 0 0 0 0 0 0 0 0 0 0 0 0
0 0 0 0 0 0 0 0 0 0 0 0 -0 -0 -0 -0 0 0 0 0 0 1 0 0 0 1 1 0 0 0 0 0 0 0 0 0 0 0 0 0 0 0 0
0 0 0 0 0 0 0 0 0 0 0 -0 -0 -0 -0 -0 -0 0 0 0 0 0 0 0 0 0 1 0 0 0 0 0 0 0 0 0 0 0 0 0 0 0 0
0 0 0 0 0 0 0 0 0 0 0 0 0 0 -0 -0 -0 -0 -0 0 0 0 0 0 0 0 0 1 1 0 0 0 0 0 0 0 0 0 0 0 0 0 0
0 0 0 0 0 0 0 0 0 0 0 0 0 0 0 -0 -0 -0 -0 0 0 0 0 0 0 0 0 0 0 0 0 0 0 0 0 0 0 0 0 0 0 0 0
Wind_Speed_500mb
23 23 20 20 21 24 24 26 32 37 36 32 33 36 39 39 37 36 36 34 33 32 31 30 30 28 25 23 21 21 23 24 26 35 42 46 44 43 45 45 40 38 36
27 27 22 20 19 22 25 25 28 35 37 36 35 36 36 37 33 32 33 31 29 28 27 26 26 27 24 21 21 20 20 21 21 32 35 41 42 43 44 46 41 38 37
28 25 23 20 19 23 28 26 26 30 34 36 36 38 37 34 30 28 28 27 25 23 22 21 22 22 21 17 16 18 15 16 14 17 33 32 39 41 42 45 40 36 35
26 21 18 17 18 26 30 28 26 26 31 33 32 32 33 31 27 24 23 21 19 18 16 15 16 17 17 14 12 13 12 11 10 13 19 24 30 37 39 42 38 33 33
27 21 15 15 17 25 31 29 25 24 25 29 31 29 26 24 22 21 19 18 15 15 13 9 8 10 12 11 9 9 7 7 9 14 14 14 19 31 33 36 35 31 31
27 23 19 16 19 26 29 29 25 23 20 23 26 26 24 21 19 17 16 15 14 13 10 7 5 4 6 7 6 6 3 3 3 2 3 4 10 21 27 30 31 28 26
21 24 22 16 19 22 25 27 25 20 18 18 19 21 20 19 18 17 15 14 13 12 11 9 7 7 5 4 3 2 2 3 5 10 9 6 6 11 19 25 27 25 22
20 29 26 22 18 19 19 20 19 19 17 16 15 17 18 18 18 17 17 17 16 15 13 12 11 11 10 6 4 5 6 7 10 11 8 8 10 6 13 18 21 21 19
32 37 28 24 23 21 18 14 10 7 10 15 17 18 18 18 20 21 21 22 22 22 20 18 17 16 15 12 7 6 9 13 15 15 12 10 15 9 8 13 17 17 16
32 36 27 22 24 26 25 21 16 9 2 5 10 15 19 22 24 25 26 27 27 28 26 25 24 23 21 18 13 9 9 15 15 17 13 15 21 18 9 10 15 14 13
37 29 19 17 24 25 20 16 12 11 3 2 6 10 15 18 23 27 29 30 31 31 32 31 31 30 27 25 21 15 11 15 18 21 20 22 27 28 17 9 15 12 11
45 34 23 23 23 13 10 3 6 9 8 7 7 9 14 18 21 25 28 31 34 35 37 37 37 37 36 33 28 23 16 19 17 25 28 24 29 34 24 14 14 13 11
46 35 26 23 29 13 9 8 9 9 15 18 18 19 20 16 14 17 22 33 36 31 29 32 35 39 41 40 35 30 21 24 22 22 26 27 30 38 28 18 15 15 16
41 28 17 17 13 5 4 5 7 12 10 17 25 26 25 31 26 22 20 22 30 31 22 22 22 25 32 42 41 36 31 29 23 19 29 29 35 41 31 22 22 24 21
27 25 22 18 13 13 21 28 26 24 21 18 17 17 26 33 37 34 29 30 32 32 31 27 30 31 27 23 35 37 35 38 31 25 24 24 37 42 31 26 19 33 27
29 27 27 27 31 36 46 32 30 30 30 27 26 18 23 27 36 45 42 40 39 35 33 35 35 33 33 31 27 28 24 28 33 30 37 28 36 43 33 30 29 35 31
45 38 32 29 29 35 40 38 30 30 33 32 32 33 29 26 32 43 50 51 55 42 38 42 45 42 34 34 36 33 30 30 33 38 42 36 32 39 37 35 33 34 34
38 33 28 19 21 39 30 22 23 24 27 30 31 32 33 36 36 37 42 54 61 65 52 48 52 57 47 42 38 37 39 39 46 47 44 42 40 38 43 38 34 36 29
37 29 14 8 23 20 17 20 21 23 25 28 30 33 34 36 36 41 43 44 52 66 63 57 50 49 53 57 48 40 44 53 47 48 47 48 50 50 48 47 36 28 23
40 21 5 11 15 14 15 19 23 25 25 25 25 28 32 33 35 33 37 42 43 51 62 59 51 44 49 49 49 47 47 52 59 49 53 57 58 57 54 52 41 34 26
31 18 10 3 8 10 17 26 30 34 34 32 33 33 35 36 36 36 30 32 44 44 54 55 61 57 50 51 50 57 54 54 58 54 55 60 57 59 59 53 48 41 40
28 20 17 4 10 15 16 17 22 34 36 39 42 39 42 39 41 38 33 28 28 35 46 50 42 48 55 54 50 50 54 61 61 56 47 47 56 61 61 57 50 47 43
35 30 12 6 16 5 17 17 23 30 34 44 51 46 42 42 43 41 36 28 20 21 28 40 44 53 60 49 58 47 28 41 54 51 46 51 50 57 64 50 39 33 39
24 21 9 7 7 7 11 15 28 33 42 52 55 50 50 50 49 43 38 31 26 23 26 37 45 55 57 63 57 58 51 61 44 21 37 42 44 45 60 59 39 41 58
17 18 15 19 20 14 19 30 33 37 48 50 44 48 54 58 54 53 50 47 40 28 26 39 40 49 57 63 64 65 59 54 59 51 29 32 38 46 53 50 51 45 63
29 17 5 14 16 21 38 48 47 48 50 51 46 55 59 65 62 56 58 55 46 37 32 32 38 50 55 71 69 68 66 52 48 57 45 45 52 47 56 50 58 58 56
Wind_Direction_500mb
164 142 148 150 153 151 145 131 138 154 158 152 147 145 144 144 138 130 125 121 118 115 111 108 103 101 100 96 92 79 79 93 82 60 55 49 47 43 43 41 46 53 55
176 154 158 158 161 162 158 142 137 146 151 149 147 145 146 145 139 132 127 125 122 118 114 111 108 106 110 104 94 88 84 95 100 66 56 48 45 39 39 37 45 51 55
170 163 159 164 166 166 161 151 140 144 151 151 152 151 152 152 146 139 133 129 127 123 120 118 116 118 118 110 97 90 85 81 91 68 49 46 41 37 34 34 43 55 61
171 162 163 162 162 160 161 154 143 142 151 157 157 157 158 158 156 149 141 136 135 135 131 127 122 118 118 116 105 94 89 71 45 48 44 36 35 38 30 29 40 52 57
151 150 170 155 150 155 158 155 147 140 149 160 162 162 165 168 167 160 156 150 152 153 146 143 139 127 118 115 108 97 97 82 44 31 45 28 29 38 31 25 35 47 51
163 163 174 159 144 152 159 159 151 143 148 157 166 166 169 175 180 179 177 170 168 169 170 174 186 190 145 130 123 114 121 125 183 235 101 356 11 31 32 21 34 44 49
156 180 165 158 143 143 153 160 161 156 154 158 169 173 176 181 194 196 198 201 200 196 200 211 222 235 224 174 163 189 215 187 207 253 308 266 312 16 28 21 28 38 45
181 189 166 155 146 137 142 155 163 167 174 174 185 188 188 192 206 217 220 221 227 231 235 242 248 249 245 234 190 211 245 233 238 265 295 240 248 330 17 18 17 29 36
187 180 163 154 145 124 109 103 113 146 183 196 202 208 209 212 220 227 232 236 241 244 245 249 256 257 250 248 235 198 234 253 259 261 266 231 233 270 339 1 3 15 23
156 168 153 146 142 133 128 107 73 69 30 269 240 234 230 230 233 238 242 244 247 253 254 254 255 256 254 250 243 226 224 242 245 251 251 241 235 254 282 330 343 354 8
148 142 122 144 164 154 136 115 87 73 35 301 295 297 278 266 260 255 253 253 255 256 259 260 260 259 257 254 249 237 226 242 245 247 253 261 248 247 250 272 323 326 346
134 123 131 164 160 145 171 141 30 340 318 270 292 290 291 277 271 268 268 264 260 260 262 264 265 264 261 259 257 249 240 255 266 255 250 265 243 237 241 244 297 303 313
133 135 131 118 135 155 174 205 240 308 263 268 273 278 283 272 273 276 286 271 266 261 268 269 270 272 271 267 261 256 250 255 276 271 256 267 242 236 236 240 272 284 293
148 154 156 126 127 125 45 337 305 307 325 253 260 273 287 283 273 278 285 297 283 266 271 275 276 296 285 266 265 259 252 252 265 285 267 262 238 234 237 243 290 283 281
183 180 193 216 245 296 301 290 292 285 284 290 289 253 282 290 275 272 279 282 293 282 269 276 276 281 294 282 267 262 257 249 252 269 287 251 236 233 239 248 274 291 272
233 255 273 277 286 296 312 288 285 297 293 273 272 283 268 276 278 276 273 265 271 279 278 272 271 271 274 282 285 250 259 252 248 271 273 261 233 233 239 242 258 280 265
212 219 231 251 280 302 319 308 297 305 303 301 285 266 266 281 284 278 276 269 264 270 280 269 265 264 268 275 272 257 247 241 251 267 265 256 244 236 246 253 260 264 267
213 217 236 271 328 334 324 328 327 321 314 309 303 305 295 277 268 276 272 267 264 261 268 273 268 262 260 264 275 264 249 246 247 254 265 260 252 256 248 249 268 259 262
221 218 207 323 343 349 335 336 335 338 328 317 308 305 303 301 298 275 277 269 265 260 264 268 274 271 267 263 263 273 258 247 245 258 258 260 259 254 252 241 238 238 246
204 194 246 329 356 22 354 332 326 318 310 315 322 322 319 325 317 315 283 282 267 265 266 262 263 270 273 276 268 266 264 247 244 249 251 253 253 252 246 239 226 224 228
209 225 238 259 89 16 344 333 327 329 328 322 316 319 320 323 328 320 318 290 274 263 268 270 267 271 277 261 270 269 266 260 256 248 250 245 249 251 243 234 233 220 220
224 220 238 226 359 341 334 333 336 341 332 330 324 317 303 312 328 331 332 324 294 280 267 267 266 272 270 261 261 271 272 262 260 260 246 237 239 245 237 231 230 219 230
228 230 216 298 305 317 317 314 312 316 327 335 331 320 313 315 316 323 326 326 314 294 284 265 272 263 267 264 268 261 269 264 261 258 253 236 241 233 231 229 250 240 257
207 194 184 226 199 227 272 286 309 316 312 325 332 328 325 317 312 317 325 321 316 297 269 271 275 267 252 264 261 265 259 260 262 255 229 228 232 230 219 235 218 236 236
209 199 192 200 186 193 253 288 297 306 302 309 315 322 326 324 313 309 314 318 311 304 277 268 272 275 267 263 263 261 261 264 260 253 255 238 236 225 232 219 220 229 226
39 24 199 203 219 248 290 290 288 291 296 305 312 316 319 326 318 311 311 313 314 308 281 265 256 254 258 267 262 263 259 258 261 253 250 254 241 225 217 228 215 217 228
Wind_Speed_850mb
23 23 20 20 21 24 24 26 32 37 36 32 33 36 39 39 37 36 36 34 33 32 31 30 30 28 25 23 21 21 23 24 26 35 42 46 44 43 45 45 40 38 36
27 27 22 20 19 22 25 25 28 35 37 36 35 36 36 37 33 32 33 31 29 28 27 26 26 27 24 21 21 20 20 21 21 32 35 41 42 43 44 46 41 38 37
28 25 23 20 19 23 28 26 26 30 34 36 36 38 37 34 30 28 28 27 25 23 22 21 22 22 21 17 16 18 15 16 14 17 33 32 39 41 42 45 40 36 35
26 21 18 17 18 26 30 28 26 26 31 33 32 32 33 31 27 24 23 21 19 18 16 15 16 17 17 14 12 13 12 11 10 13 19 24 30 37 39 42 38 33 33
27 21 15 15 17 25 31 29 25 24 25 29 31 29 26 24 22 21 19 18 15 15 13 9 8 10 12 11 9 9 7 7 9 14 14 14 19 31 33 36 35 31 31
27 23 19 16 19 26 29 29 25 23 20 23 26 26 24 21 19 17 16 15 14 13 10 7 5 4 6 7 6 6 3 3 3 2 3 4 10 21 27 30 31 28 26
21 24 22 16 19 22 25 27 25 20 18 18 19 21 20 19 18 17 15 14 13 12 11 9 7 7 5 4 3 2 2 3 5 10 9 6 6 11 19 25 27 25 22
20 29 26 22 18 19 19 20 19 19 17 16 15 17 18 18 18 17 17 17 16 15 13 12 11 11 10 6 4 5 6 7 10 11 8 8 10 6 13 18 21 21 19
32 37 28 24 23 21 18 14 10 7 10 15 17 18 18 18 20 21 21 22 22 22 20 18 17 16 15 12 7 6 9 13 15 15 12 10 15 9 8 13 17 17 16
32 36 27 22 24 26 25 21 16 9 2 5 10 15 19 22 24 25 26 27 27 28 26 25 24 23 21 18 13 9 9 15 15 17 13 15 21 18 9 10 15 14 13
37 29 19 17 24 25 20 16 12 11 3 2 6 10 15 18 23 27 29 30 31 31 32 31 31 30 27 25 21 15 11 15 18 21 20 22 27 28 17 9 15 12 11
45 34 23 23 23 13 10 3 6 9 8 7 7 9 14 18 21 25 28 31 34 35 37 37 37 37 36 33 28 23 16 19 17 25 28 24 29 34 24 14 14 13 11
46 35 26 23 29 13 9 8 9 9 15 18 18 19 20 16 14 17 22 33 36 31 29 32 35 39 41 40 35 30 21 24 22 22 26 27 30 38 28 18 15 15 16
41 28 17 17 13 5 4 5 7 12 10 17 25 26 25 31 26 22 20 22 30 31 22 22 22 25 32 42 41 36 31 29 23 19 29 29 35 41 31 22 22 24 21
27 25 22 18 13 13 21 28 26 24 21 18 17 17 26 33 37 34 29 30 32 32 31 27 30 31 27 23 35 37 35 38 31 25 24 24 37 42 31 26 19 33 27
29 27 27 27 31 36 46 32 30 30 30 27 26 18 23 27 36 45 42 40 39 35 33 35 35 33 33 31 27 28 24 28 33 30 37 28 36 43 33 30 29 35 31
45 38 32 29 29 35 40 38 30 30 33 32 32 33 29 26 32 43 50 51 55 42 38 42 45 42 34 34 36 33 30 30 33 38 42 36 32 39 37 35 33 34 34
38 33 28 19 21 39 30 22 23 24 27 30 31 32 33 36 36 37 42 54 61 65 52 48 52 57 47 42 38 37 39 39 46 47 44 42 40 38 43 38 34 36 29
37 29 14 8 23 20 17 20 21 23 25 28 30 33 34 36 36 41 43 44 52 66 63 57 50 49 53 57 48 40 44 53 47 48 47 48 50 50 48 47 36 28 23
40 21 5 11 15 14 15 19 23 25 25 25 25 28 32 33 35 33 37 42 43 51 62 59 51 44 49 49 49 47 47 52 59 49 53 57 58 57 54 52 41 34 26
31 18 10 3 8 10 17 26 30 34 34 32 33 33 35 36 36 36 30 32 44 44 54 55 61 57 50 51 50 57 54 54 58 54 55 60 57 59 59 53 48 41 40
28 20 17 4 10 15 16 17 22 34 36 39 42 39 42 39 41 38 33 28 28 35 46 50 42 48 55 54 50 50 54 61 61 56 47 47 56 61 61 57 50 47 43
35 30 12 6 16 5 17 17 23 30 34 44 51 46 42 42 43 41 36 28 20 21 28 40 44 53 60 49 58 47 28 41 54 51 46 51 50 57 64 50 39 33 39
24 21 9 7 7 7 11 15 28 33 42 52 55 50 50 50 49 43 38 31 26 23 26 37 45 55 57 63 57 58 51 61 44 21 37 42 44 45 60 59 39 41 58
17 18 15 19 20 14 19 30 33 37 48 50 44 48 54 58 54 53 50 47 40 28 26 39 40 49 57 63 64 65 59 54 59 51 29 32 38 46 53 50 51 45 63
29 17 5 14 16 21 38 48 47 48 50 51 46 55 59 65 62 56 58 55 46 37 32 32 38 50 55 71 69 68 66 52 48 57 45 45 52 47 56 50 58 58 56
Wind_Direction_850mb
164 142 148 150 153 151 145 131 138 154 158 152 147 145 144 144 138 130 125 121 118 115 111 108 103 101 100 96 92 79 79 93 82 60 55 49 47 43 43 41 46 53 55
176 154 158 158 161 162 158 142 137 146 151 149 147 145 146 145 139 132 127 125 122 118 114 111 108 106 110 104 94 88 84 95 100 66 56 48 45 39 39 37 45 51 55
170 163 159 164 166 166 161 151 140 144 151 151 152 151 152 152 146 139 133 129 127 123 120 118 116 118 118 110 97 90 85 81 91 68 49 46 41 37 34 34 43 55 61
171 162 163 162 162 160 161 154 143 142 151 157 157 157 158 158 156 149 141 136 135 135 131 127 122 118 118 116 105 94 89 71 45 48 44 36 35 38 30 29 40 52 57
151 150 170 155 150 155 158 155 147 140 149 160 162 162 165 168 167 160 156 150 152 153 146 143 139 127 118 115 108 97 97 82 44 31 45 28 29 38 31 25 35 47 51
163 163 174 159 144 152 159 159 151 143 148 157 166 166 169 175 180 179 177 170 168 169 170 174 186 190 145 130 123 114 121 125 183 235 101 356 11 31 32 21 34 44 49
156 180 165 158 143 143 153 160 161 156 154 158 169 173 176 181 194 196 198 201 200 196 200 211 222 235 224 174 163 189 215 187 207 253 308 266 312 16 28 21 28 38 45
181 189 166 155 146 137 142 155 163 167 174 174 185 188 188 192 206 217 220 221 227 231 235 242 248 249 245 234 190 211 245 233 238 265 295 240 248 330 17 18 17 29 36
187 180 163 154 145 124 109 103 113 146 183 196 202 208 209 212 220 227 232 236 241 244 245 249 256 257 250 248 235 198 234 253 259 261 266 231 233 270 339 1 3 15 23
156 168 153 146 142 133 128 107 73 69 30 269 240 234 230 230 233 238 242 244 247 253 254 254 255 256 254 250 243 226 224 242 245 251 251 241 235 254 282 330 343 354 8
148 142 122 144 164 154 136 115 87 73 35 301 295 297 278 266 260 255 253 253 255 256 259 260 260 259 257 254 249 237 226 242 245 247 253 261 248 247 250 272 323 326 346
134 123 131 164 160 145 171 141 30 340 318 270 292 290 291 277 271 268 268 264 260 260 262 264 265 264 261 259 257 249 240 255 266 255 250 265 243 237 241 244 297 303 313
133 135 131 118 135 155 174 205 240 308 263 268 273 278 283 272 273 276 286 271 266 261 268 269 270 272 271 267 261 256 250 255 276 271 256 267 242 236 236 240 272 284 293
148 154 156 126 127 125 45 337 305 307 325 253 260 273 287 283 273 278 285 297 283 266 271 275 276 296 285 266 265 259 252 252 265 285 267 262 238 234 237 243 290 283 281
183 180 193 216 245 296 301 290 292 285 284 290 289 253 282 290 275 272 279 282 293 282 269 276 276 281 294 282 267 262 257 249 252 269 287 251 236 233 239 248 274 291 272
233 255 273 277 286 296 312 288 285 297 293 273 272 283 268 276 278 276 273 265 271 279 278 272 271 271 274 282 285 250 259 252 248 271 273 261 233 233 239 242 258 280 265
212 219 231 251 280 302 319 308 297 305 303 301 285 266 266 281 284 278 276 269 264 270 280 269 265 264 268 275 272 257 247 241 251 267 265 256 244 236 246 253 260 264 267
213 217 236 271 328 334 324 328 327 321 314 309 303 305 295 277 268 276 272 267 264 261 268 273 268 262 260 264 275 264 249 246 247 254 265 260 252 256 248 249 268 259 262
221 218 207 323 343 349 335 336 335 338 328 317 308 305 303 301 298 275 277 269 265 260 264 268 274 271 267 263 263 273 258 247 245 258 258 260 259 254 252 241 238 238 246
204 194 246 329 356 22 354 332 326 318 310 315 322 322 319 325 317 315 283 282 267 265 266 262 263 270 273 276 268 266 264 247 244 249 251 253 253 252 246 239 226 224 228
209 225 238 259 89 16 344 333 327 329 328 322 316 319 320 323 328 320 318 290 274 263 268 270 267 271 277 261 270 269 266 260 256 248 250 245 249 251 243 234 233 220 220
224 220 238 226 359 341 334 333 336 341 332 330 324 317 303 312 328 331 332 324 294 280 267 267 266 272 270 261 261 271 272 262 260 260 246 237 239 245 237 231 230 219 230
228 230 216 298 305 317 317 314 312 316 327 335 331 320 313 315 316 323 326 326 314 294 284 265 272 263 267 264 268 261 269 264 261 258 253 236 241 233 231 229 250 240 257
207 194 184 226 199 227 272 286 309 316 312 325 332 328 325 317 312 317 325 321 316 297 269 271 275 267 252 264 261 265 259 260 262 255 229 228 232 230 219 235 218 236 236
209 199 192 200 186 193 253 288 297 306 302 309 315 322 326 324 313 309 314 318 311 304 277 268 272 275 267 263 263 261 261 264 260 253 255 238 236 225 232 219 220 229 226
39 24 199 203 219 248 290 290 288 291 296 305 312 316 319 326 318 311 311 313 314 308 281 265 256 254 258 267 262 263 259 258 261 253 250 254 241 225 217 228 215 217 228